Regional Weather Roundup
Issued by NWS

Home | Current Version | Previous Version | Graphics & Text | Print | Product List | Glossary On
Versions: 1 2 3 4 5 6 7 8 9 10 11 12 13 14 15 16 17 18 19 20 21 22 23 24 25 26 27 28 29 30 31 32 33 34 35 36 37 38 39 40 41 42 43 44 45 46 47 48 49 50
000
ASUS45 KCYS 272010
RWRWY

WYOMING REGIONAL WEATHER ROUNDUP
NATIONAL WEATHER SERVICE CHEYENNE WY
200 PM MDT TUE SEP 27 2016

NOTE:  "FAIR" INDICATES FEW OR NO CLOUDS BELOW 12,000 FEET
WITH NO SIGNIFICANT WEATHER AND/OR OBSTRUCTIONS TO VISIBILITY.

WYZ001-272100-
YELLOWSTONE NATIONAL PARK

CITY           SKY/WX    TMP DP  RH WIND       PRES   REMARKS
LK YELLOWSTONE   N/A     61  41  47 E5        30.37F
W YELLOWSTONE  NOT AVBL

$$
WYZ002>013-054>058-071-098>099-272100-
NORTHERN WYOMING

CITY           SKY/WX    TMP DP  RH WIND       PRES   REMARKS
JACKSON        SUNNY     66  37  34 CALM      30.28F
CODY           FAIR      75  52  43 NE9       30.15F
GREYBULL       FAIR      72  46  39 CALM      30.11F
WORLAND        FAIR      72  48  42 CALM      30.12F
SHERIDAN       FAIR      83  41  22 NW10      30.07F
BUFFALO        FAIR      79  36  21 N12G23    30.14F
GILLETTE       FAIR      78  41  26 NW10      30.09F
HULETT         FAIR      77  41  27 NW8       30.09F
NEWCASTLE      FAIR      77  37  24 N13G18    30.09F

$$
WYZ014>020-022>026-101>103-272100-
CENTRAL WYOMING

CITY           SKY/WX    TMP DP  RH WIND       PRES   REMARKS
BIG PINEY      FAIR      70  32  24 VRB3      30.30F
PINEDALE       FAIR      70  32  24 CALM      30.30F
DUBOIS         FAIR      72  25  17 N10G16    30.27F
LANDER         FAIR      74  40  29 VRB5      30.19F
RIVERTON         N/A    N/A N/A N/A MISG      30.21F
CASPER         FAIR      76  40  27 W9        30.16F
DOUGLAS        FAIR      81  30  15 NW14      30.14F

$$
WYZ021-027>030-104>119-272100-
SOUTHERN WYOMING

CITY           SKY/WX    TMP DP  RH WIND       PRES   REMARKS
EVANSTON       FAIR      68  34  28 VRB3      30.31F
FORT BRIDGER   FAIR      69  33  27 CALM      30.34F
ROCK SPRINGS   FAIR      68  35  29 N5        30.30F
DIXON          FAIR      71  37  29 W8        30.31F
RAWLINS        FAIR      72  33  24 W9        30.29F
SARATOGA       FAIR      72  32  23 NW10      30.30F
LARAMIE        FAIR      70  32  24 VRB7      30.28F
CHEYENNE       FAIR      79  21  11 N9        30.20F
TORRINGTON     FAIR      82  27  13 W9        30.08F
PINE BLUFFS    FAIR      81  27  13 CALM      30.15F

$$



USA.gov is the U.S. government's official web portal to all federal, state and local government web resources and services.